Regional Weather Roundup
Issued by NWS Glasgow, MT

Home | Current Version | Previous Version | Text Only | Print | Product List | Glossary On
Versions: 1 2 3 4 5 6 7 8 9 10 11 12 13 14 15 16 17 18 19 20 21 22 23 24 25 26 27 28 29 30 31 32 33 34 35 36 37 38 39 40 41 42 43 44 45 46 47 48
000
ASUS45 KGGW 300615
RWRGGW
HOURLY WEATHER ROUNDUP FOR NORTHEAST MONTANA
NATIONAL WEATHER SERVICE GLASGOW MONTANA
1200 AM MDT TUE SEP 30 2014

NOTE: "FAIR" INDICATES FEW OR NO CLOUDS BELOW 12,000 FEET WITH NO
SIGNIFICANT WEATHER AND/OR OBSTRUCTIONS TO VISISBILITY.

NORTHEAST MONTANA


CITY           SKY/WX    TMP DP  RH WIND       PRES   REMARKS
GLASGOW        CLOUDY    49  47  93 E15       29.74F
6HR MIN TEMP:  48; 6HR MAX TEMP:  50;

PLENTYWOOD       N/A     51  48  89 S12         N/A
WOLF POINT     CLOUDY    53  49  86 SE6       29.79F
JORDAN           N/A     48  47  96 SE3       29.74F
WINNETT          N/A     50  47  89 S3          N/A
SIDNEY         CLOUDY    54  48  82 S5        29.84F
GLENDIVE       CLOUDY    52  48  87 SE5       29.83S
MALTA            N/A     52  49  89 SE8         N/A
OPHEIM           N/A     46  46 100 SE7       29.67S

FORT PECK REPORTS


CITY           SKY/WX    TMP DP  RH WIND       PRES   REMARKS
FORT PECK        N/A     53  51  93 SE16        N/A
THE PINES        N/A     51  47  86 S3          N/A

SOUTHEAST MONTANA


CITY           SKY/WX    TMP DP  RH WIND       PRES   REMARKS
BILLINGS       PTCLDY    50  47  89 S6        29.78S
MILES CITY     CLOUDY    53  50  89 SE13      29.79F
BAKER          CLOUDY    51  51 100 SE12      29.81F FOG
LIVINGSTON     MOCLDY    54  42  64 W13       29.80R

CENTRAL MONTANA


CITY           SKY/WX    TMP DP  RH WIND       PRES   REMARKS
HAVRE          NOT AVBL
LEWISTOWN      PTCLDY    49  42  77 S5        29.73S
GREAT FALLS    CLOUDY    55  45  68 SW13      29.68S
CUT BANK       CLOUDY    56  42  59 W15       29.64F
HELENA         CLOUDY    57  43  59 W16G28    29.77S
BUTTE          LGT RAIN  47  43  86 NW7       29.88R
BOZEMAN        CLOUDY    50  44  80 N3        29.81S

WESTERN MONTANA


CITY           SKY/WX    TMP DP  RH WIND       PRES   REMARKS
MISSOULA       CLOUDY    52  52 100 SE3       29.85S
KALISPELL      NOT AVBL

NORTH DAKOTA


CITY           SKY/WX    TMP DP  RH WIND       PRES   REMARKS
WILLISTON      CLOUDY    53  48  83 SE8       29.85F
DICKINSON      CLOUDY    51  49  92 SE15      29.84F
MINOT          CLOUDY    52  46  80 SE14      29.92F
BISMARCK       CLOUDY    55  49  80 E9        29.92F

SOUTHERN SASKATCHEWAN


CITY           SKY/WX    TMP DP  RH WIND       PRES   REMARKS
REGINA         CLOUDY    48  45  87 SE16G25   29.83S
ESTEVAN        CLOUDY    50  46  87 SE10      29.88F
SWIFT CURRENT  CLOUDY    48  46  93 SE16      29.68R



USA.gov is the U.S. government's official web portal to all federal, state and local government web resources and services.